EW3263 Weather Reports


Display with metric or nautical units.
time (UTC)temp
F
wind
direction
speed
MPH
gust
MPH
rain 1hr
in
rain 24hr
in
rain mn
in
humidity
%
barometer
mb
20260508224524 81 0.0 0.0 0.00 0.00 0.00 48 1019.1
20260508223019 82 0.0 0.0 0.00 0.00 0.00 46 1019.2
20260508221515 83 0.0 0.0 0.00 0.00 0.00 45 1019.4
20260508220032 83 0.0 0.0 0.00 0.00 0.00 45 1019.6
20260508214506 83 0.0 0.0 0.00 0.00 0.00 39 1019.6
20260508213003 84 0.0 0.0 0.00 0.00 0.00 40 1019.8
20260508211557 83 0.0 0.0 0.00 0.00 0.00 40 1019.9
20260508210056 82 0.0 0.0 0.00 0.00 0.00 42 1020.0
20260508204600 81 0.0 0.0 0.00 0.00 0.00 42 1020.1
20260508203047 80 0.0 0.0 0.00 0.00 0.00 44 1020.3
20260508201540 80 0.0 0.0 0.00 0.00 0.00 48 1020.3
20260508200037 79 0.0 0.0 0.00 0.00 0.00 49 1020.3
20260508194534 78 0.0 0.0 0.00 0.00 0.00 53 1020.5
20260508193028 77 0.0 0.0 0.00 0.00 0.00 53 1020.7
20260508191524 76 0.0 0.0 0.00 0.00 0.00 56 1020.8
20260508190017 74 0.0 0.0 0.00 0.00 0.00 61 1020.9
20260508184519 74 0.0 0.0 0.00 0.00 0.00 60 1021.1
20260508183011 73 0.0 0.0 0.00 0.00 0.00 60 1021.3
20260508181505 72 0.0 0.0 0.00 0.00 0.00 62 1021.2
20260508180108 71 0.0 0.0 0.00 0.00 0.00 63 1021.3
20260508174614 70 0.0 0.0 0.00 0.00 0.00 63 1021.4
20260508173053 69 0.0 0.0 0.00 0.00 0.00 65 1021.4
20260508171547 68 0.0 0.0 0.00 0.00 0.00 66 1021.3
20260508170044 66 0.0 0.0 0.00 0.00 0.00 69 1021.3
20260508164539 65 0.0 0.0 0.00 0.00 0.00 73 1021.5
20260508163039 63 0.0 0.0 0.00 0.00 0.00 76 1021.5
20260508161535 62 0.0 0.0 0.00 0.00 0.00 79 1021.6
20260508160025 60 0.0 0.0 0.00 0.00 0.00 82 1021.7
20260508154522 59 0.0 0.0 0.00 0.00 0.00 85 1021.7
20260508153020 57 0.0 0.0 0.00 0.00 0.00 89 1021.7
20260508151515 56 0.0 0.0 0.00 0.00 0.00 90 1021.8
20260508150018 55 0.0 0.0 0.00 0.00 0.00 91 1021.8
20260508144515 55 0.0 0.0 0.00 0.00 0.00 92 1021.7
20260508143017 55 0.0 0.0 0.00 0.00 0.00 92 1021.6
20260508141508 54 0.0 0.0 0.00 0.00 0.00 92 1021.5
20260508140006 54 0.0 0.0 0.00 0.00 0.00 92 1021.4
20260508134617 55 0.0 0.0 0.00 0.00 0.00 92 1021.2
20260508133055 55 0.0 0.0 0.00 0.00 0.00 93 1021.2
20260508131551 55 0.0 0.0 0.00 0.00 0.00 93 1021.1
20260508130046 55 0.0 0.0 0.00 0.00 0.00 93 1021.1
20260508124542 55 0.0 0.0 0.00 0.00 0.00 93 1020.9
20260508123038 55 0.0 0.0 0.00 0.00 0.00 93 1020.9
20260508121540 55 0.0 0.0 0.00 0.00 0.00 92 1020.8
20260508120029 55 0.0 0.0 0.00 0.00 0.00 92 1020.8
20260508114524 55 0.0 0.0 0.00 0.00 0.00 92 1020.8
20260508113020 55 0.0 0.0 0.00 0.00 0.00 93 1020.9
20260508111516 55 0.0 0.0 0.00 0.00 0.00 93 1020.9
20260508110017 55 0.0 0.0 0.00 0.00 0.00 93 1021.0
20260508104509 55 0.0 0.0 0.00 0.00 0.00 93 1021.1
20260508103002 55 0.0 0.0 0.00 0.00 0.00 93 1021.2
20260508101600 55 0.0 0.0 0.00 0.00 0.00 93 1021.2
20260508100054 55 0.0 0.0 0.00 0.00 0.00 92 1021.1
20260508094609 56 0.0 0.0 0.00 0.00 0.00 92 1021.0
20260508093046 56 0.0 0.0 0.00 0.00 0.00 92 1021.0
20260508091543 56 0.0 0.0 0.00 0.00 0.00 91 1021.1
20260508090038 56 0.0 0.0 0.00 0.00 0.00 91 1021.1
20260508084533 56 0.0 0.0 0.00 0.00 0.00 91 1021.3
20260508083029 56 0.0 0.0 0.00 0.00 0.00 91 1021.5
20260508081553 56 0.0 0.0 0.00 0.00 0.00 91 1021.6
20260508080020 56 0.0 0.0 0.00 0.00 0.00 91 1021.6
20260508074516 56 0.0 0.0 0.00 0.00 0.00 91 1021.7
20260508073011 57 0.0 0.0 0.00 0.00 0.00 90 1021.9
20260508071516 57 0.0 0.0 0.00 0.00 0.00 91 1022.0
20260508070005 57 0.0 0.0 0.00 0.00 0.00 90 1022.0
20260508064558 57 0.0 0.0 0.00 0.00 0.00 90 1022.1
20260508063104 57 0.0 0.0 0.00 0.00 0.00 90 1022.2
20260508061555 57 0.0 0.0 0.00 0.00 0.00 90 1022.2
20260508060052 57 0.0 0.0 0.00 0.00 0.00 90 1022.1
20260508054541 57 0.0 0.0 0.00 0.00 0.00 88 1022.1
20260508053040 57 0.0 0.0 0.00 0.00 0.00 87 1022.1
20260508051534 58 0.0 0.0 0.00 0.00 0.00 86 1022.0
20260508050027 58 0.0 0.0 0.00 0.00 0.00 85 1022.0
20260508044528 59 0.0 0.0 0.00 0.00 0.00 84 1021.9
20260508043021 59 0.0 0.0 0.00 0.00 0.00 83 1021.8
20260508041514 60 0.0 0.0 0.00 0.00 0.00 82 1021.5
20260508040010 61 0.0 0.0 0.00 0.00 0.00 81 1021.5
20260508034506 61 0.0 0.0 0.00 0.00 0.00 79 1021.3
20260508033001 62 0.0 0.0 0.00 0.00 0.00 77 1021.1
20260508031558 63 0.0 0.0 0.00 0.00 0.00 76 1021.0
20260508030054 64 0.0 0.0 0.00 0.00 0.00 74 1020.7
20260508024552 65 0.0 0.0 0.00 0.00 0.00 72 1020.5
20260508023044 66 0.0 0.0 0.00 0.00 0.00 70 1020.4
20260508021540 67 0.0 0.0 0.00 0.00 0.00 69 1020.3
20260508020035 68 0.0 0.0 0.00 0.00 0.00 67 1020.2
20260508014539 69 0.0 0.0 0.00 0.00 0.00 66 1020.3
20260508013027 69 0.0 0.0 0.00 0.00 0.00 64 1020.1
20260508011523 70 0.0 0.0 0.00 0.00 0.00 63 1020.2
20260508010028 71 0.0 0.0 0.00 0.00 0.00 62 1020.3
20260508004514 72 0.0 0.0 0.00 0.00 0.00 62 1020.2
20260508003012 72 0.0 0.0 0.00 0.00 0.00 61 1020.2
20260508001506 73 0.0 0.0 0.00 0.00 0.00 60 1020.1
20260508000100 73 0.0 0.0 0.00 0.00 0.00 60 1020.1
20260507234556 73 0.0 0.0 0.00 0.00 0.00 58 1020.1
20260507233052 74 0.0 0.0 0.00 0.00 0.00 58 1020.0
20260507231551 75 0.0 0.0 0.00 0.00 0.00 56 1020.0
20260507230049 74 0.0 0.0 0.00 0.00 0.00 56 1020.0